THORAD DELTA 1 DEB, 42610

Orbit data source: Space-Track

THORAD DELTA 1 DEB, 42610 is space debris in SSO originally from a launch on Fri, 15 Nov 1974 UTC launched from the Air Force Western Test Range (AFWTR). Debris objects in space refer to the collection of defunct objects orbiting the Earth. Examples of debris include non-operational satellites, rocket bodies, and fragments generated from explosions, collisions, or faulty payload assembly.

Loading next visibility...
Identifier
42610, 1974-089GB
Orbit
SSO
Country
Flag of USUS
Related business
Manufacturer
Unknown
Mission
Spacecraft
Bus & Motor
Unknown
Mass
Unknown
Launch date (UTC)
1974-11-15 (51 years ago)
Launch vehicle
Unknown
Launch site
Air Force Western Test Range (AFWTR)
Object type
Payload
Rocket body
Debris
Shape & HBR
Unknown shape, 0.1 m
Radar Cross Section
Small (<0.1 m²)

Expand to show TLE details & history
Last TLE update: 21 hours ago

TLE from 21 hours ago
0 THORAD DELTA 1 DEB
1 42610U 74089GB  26034.87000007 -.00000015  00000-0  19469-3 0  9997
2 42610 101.4151 269.6075 0079481  22.3341 338.1156 12.40361690552671
Epoch: 2026-02-03T20:52Z
TLE epoch observation values (Epoch: 2026-02-03T20:52:48.006Z)
Latitude
-0.00003°
Longitude
-177.63725°
Altitude
1,449.562 km
Speed
7.164 km/s
True Right ascension
17h 58m 25s
True Declination
0° 00' 00"
Sunlit
Object was in daylight at epoch
Visualization orbit readout
Latitude
Unknown
Longitude
Unknown
Altitude
Unknown
Speed
Unknown
Apparent Right ascension
Unknown
Apparent Declination
Unknown
Sunlit
N/A
Visualization observer readout
Local Sidereal Time
19:44:54
Azimuth
Unknown
Elevation
Unknown
Doppler factor
Unknown
Orbital elements
Apogee altitude
1,565.247 km
Perigee altitude
1,439.973 km
Semi-major axis
7,880.747 km
Eccentricity
0.00795
Inclination
101.4151°
RAAN
269.6075°
Arg. of periapsis
22.3341°
True anomaly
337.77296°
Mean anomaly
338.1156°
Eccentric anomaly
337.9446°
Mean motion
3.10236 °/min
Orbital period
116.04 mins
BSTAR
0.00019469
Loading maneuver chart data...
Computing Atmospheric mass density...

Documentation

Showing up to 5 results
|